Wind_Speed
12 11 11 11 11 10 7 5 6 11 16 20 23 25 28 31 33 34 35 34 31 27 22 19 20 23 25 27 29 31 33 34 38 43 45 45 45 43 40 38 37 36 36 36
12 11 10 10 9 7 5 4 7 11 16 20 23 25 28 29 29 30 30 28 24 19 13 9 10 13 17 20 22 24 25 28 32 35 38 39 38 36 35 34 34 33 34 34
11 10 10 8 7 5 2 4 8 13 16 19 21 25 26 27 27 28 27 24 21 17 12 6 1 5 9 14 18 20 23 26 28 30 32 32 31 31 31 32 31 32 33 33
10 9 8 8 6 4 2 4 8 13 17 19 21 23 25 26 26 25 23 21 18 15 13 11 10 9 11 14 17 19 21 23 26 27 28 27 28 27 28 28 30 32 33 36
9 9 8 8 6 5 4 5 8 12 15 18 20 22 23 24 24 22 20 18 16 14 12 12 13 14 15 17 18 19 20 22 23 23 23 24 25 26 27 28 31 35 37 38
9 9 9 8 7 6 4 5 8 11 14 16 18 20 21 21 21 20 18 16 14 12 12 12 13 15 16 18 18 19 19 18 18 20 21 22 22 25 27 29 31 31 33 34
11 10 10 9 8 7 6 6 8 10 12 14 17 18 19 19 19 18 17 14 13 12 11 11 11 12 14 14 15 15 14 13 14 16 17 19 21 23 24 25 26 27 29 32
12 12 11 10 9 8 7 7 8 9 11 12 14 16 16 16 16 15 15 13 12 11 10 9 9 9 10 9 9 9 8 8 10 12 14 16 16 18 19 21 23 26 30 34
14 13 12 11 10 9 8 8 8 8 9 11 13 14 14 14 13 12 11 12 11 10 9 9 8 6 6 5 5 5 6 6 6 7 9 10 12 15 18 22 26 29 33 36
16 16 14 13 11 10 10 9 9 8 9 10 11 12 13 12 11 10 8 8 8 9 9 8 8 7 6 5 3 2 1 1 3 6 8 11 14 18 22 26 29 32 35 38
18 18 17 15 14 12 12 11 10 9 9 9 9 10 11 11 10 9 7 5 4 5 6 6 6 5 4 3 3 2 3 5 7 10 13 16 19 22 25 28 31 34 37 39
18 20 19 17 16 14 13 12 12 11 10 9 8 9 10 10 9 8 7 5 4 3 3 3 3 3 4 4 5 6 8 10 13 16 18 21 23 26 29 31 33 35 38 41
19 20 19 18 18 16 15 14 13 12 11 11 10 9 10 10 9 8 7 6 5 4 4 5 5 6 7 8 10 12 14 16 18 20 22 24 26 28 30 32 34 37 40 44
19 20 20 20 20 18 16 15 15 14 13 13 12 11 11 11 10 9 8 7 7 6 6 7 8 9 11 12 14 16 18 19 21 22 24 26 28 30 32 34 37 40 44 49
20 21 22 22 21 19 18 17 17 16 15 14 14 13 13 12 11 10 10 9 8 8 9 10 11 12 14 16 17 19 20 22 23 25 27 28 30 31 33 36 40 44 49 53
21 22 22 23 22 21 20 19 18 17 17 16 15 15 14 13 12 11 11 10 10 11 12 13 14 15 17 18 20 21 22 23 25 27 28 29 31 33 36 39 43 48 52 56
21 22 22 23 22 22 21 20 19 18 17 16 16 15 15 14 13 12 12 12 12 13 14 15 16 17 19 20 21 22 24 25 27 28 29 31 33 35 38 42 46 50 54 57
20 21 21 21 21 20 20 21 21 20 18 17 17 16 16 15 14 14 14 14 14 14 15 16 18 19 20 22 23 24 25 27 28 29 31 32 35 37 41 44 48 52 55 58
18 19 19 20 20 20 20 21 21 21 20 19 18 18 17 16 16 15 15 15 15 16 17 18 19 20 22 23 24 25 27 28 29 31 32 34 36 39 42 46 49 53 56 58
17 18 18 18 18 18 19 20 20 21 21 20 19 19 19 18 17 16 16 16 16 17 18 19 20 22 23 23 25 26 28 29 31 32 33 35 38 41 44 47 50 53 56 55
15 16 17 18 17 17 17 18 19 19 20 21 21 20 20 19 19 18 17 17 18 19 20 21 21 22 23 24 26 27 29 30 32 33 35 37 39 42 45 48 51 54 54 51
14 14 15 16 17 17 16 17 18 19 21 22 22 21 21 20 20 19 19 19 20 21 21 22 22 23 24 26 27 29 30 31 32 34 36 38 40 43 46 49 52 53 51 44
13 14 14 15 16 17 17 17 18 19 20 21 21 21 21 20 20 20 20 21 21 22 22 23 24 25 26 27 29 30 31 32 33 35 36 38 41 44 47 50 52 50 44 35
13 14 15 16 17 18 18 19 19 20 20 21 21 21 21 21 21 22 22 22 23 23 24 24 25 26 27 29 30 31 31 32 34 35 36 39 42 45 48 50 50 45 36 29
17 17 17 17 17 18 19 20 20 20 20 20 21 21 21 22 23 23 23 24 24 25 26 26 27 28 29 30 31 31 32 32 34 35 37 40 43 46 49 50 46 39 32 26
22 21 21 21 20 20 20 21 21 22 23 23 23 23 24 24 25 26 25 25 26 27 27 28 28 29 30 30 31 31 31 32 34 36 38 41 44 46 48 48 42 34 28 24
27 27 26 25 25 24 23 23 23 23 23 23 24 24 25 26 27 27 27 28 28 28 28 29 29 30 30 30 30 30 31 32 34 36 39 42 45 47 47 44 38 31 26 24
Wind_Direction
249 253 253 256 259 260 260 274 311 322 325 328 329 328 330 329 328 327 326 323 320 314 300 278 260 250 244 239 237 235 234 230 223 217 215 216 218 222 228 234 240 245 250 255
251 250 248 244 241 236 241 301 332 336 335 337 338 338 338 339 338 338 338 337 336 335 326 297 261 239 231 227 224 219 213 206 203 205 207 210 213 219 226 232 238 245 252 259
246 244 238 225 218 216 252 331 341 344 344 343 342 342 345 348 349 349 349 352 356 0 10 24 77 194 203 197 188 183 179 181 187 194 199 203 209 217 224 231 238 248 253 260
239 233 225 215 211 217 266 326 341 345 347 346 346 347 350 354 356 357 359 4 13 22 37 58 79 106 135 149 156 159 162 167 178 185 192 199 208 215 226 234 243 250 254 258
232 222 211 206 208 223 261 313 337 344 346 348 350 351 353 358 1 3 8 14 22 32 48 69 88 103 117 126 133 139 148 159 170 180 191 202 210 218 227 237 249 253 254 258
221 215 208 210 216 227 256 296 327 337 342 345 349 353 357 1 4 10 13 21 30 43 58 75 91 104 113 122 130 138 147 158 171 185 197 205 217 228 235 245 251 257 264 272
215 213 215 216 221 233 257 294 321 333 337 341 346 351 357 2 8 14 20 27 36 52 67 78 90 100 110 122 132 141 153 170 188 206 214 221 228 237 246 256 264 273 280 285
216 218 222 224 231 241 262 293 315 326 332 336 341 346 350 357 4 16 25 32 40 53 67 78 87 92 102 116 134 151 169 189 205 220 226 233 243 254 264 274 281 286 290 293
220 223 226 230 239 246 264 286 302 315 322 329 334 338 342 348 355 6 21 35 43 53 64 73 78 89 110 128 150 174 195 212 224 238 249 258 268 277 284 289 293 296 298 300
223 227 231 235 243 252 264 276 288 299 310 318 325 332 337 340 344 352 6 27 44 57 68 75 81 85 94 104 115 121 156 270 283 287 288 291 293 295 297 300 302 303 304 304
225 230 235 240 246 255 262 270 278 285 293 302 313 324 332 334 335 337 340 356 24 50 64 71 77 79 73 63 45 11 327 311 304 302 302 302 303 304 306 307 307 307 306 306
229 233 238 242 249 256 261 266 270 273 277 283 294 313 322 326 325 325 323 321 330 349 6 15 16 11 2 349 338 327 317 312 310 310 310 311 311 311 310 310 309 309 309 309
235 238 241 243 249 254 258 261 262 263 264 268 278 295 309 314 312 307 304 298 296 302 311 320 325 326 326 324 322 319 317 316 315 315 315 314 314 312 311 311 311 311 311 312
241 241 242 244 247 251 253 256 257 257 259 261 267 279 292 299 299 293 284 281 281 286 295 303 308 312 315 317 318 318 317 317 316 316 316 315 314 313 313 313 314 314 314 314
244 242 242 244 247 248 249 251 253 253 254 258 262 271 282 289 289 282 275 272 275 280 287 296 303 307 312 314 316 316 317 317 317 316 316 316 315 315 316 316 316 316 316 316
246 243 242 243 245 247 248 249 250 250 251 256 261 267 276 282 282 276 270 267 270 276 285 293 300 304 309 312 314 315 316 317 317 317 316 316 316 317 317 317 317 318 318 318
246 243 241 242 244 245 245 246 246 248 251 254 258 264 273 278 276 271 266 265 269 276 284 292 299 304 308 311 313 314 315 316 316 316 317 317 317 317 317 318 319 320 320 320
246 244 243 242 243 244 244 244 244 247 249 252 256 262 269 271 271 267 264 265 270 277 285 293 299 304 308 310 312 313 314 315 316 316 317 317 317 318 318 320 321 322 322 323
246 242 241 241 242 244 244 244 244 244 246 250 255 260 264 267 267 264 262 264 271 279 287 294 299 303 307 309 310 312 313 314 315 316 316 316 317 318 320 322 323 324 325 325
247 243 240 241 243 245 245 244 243 243 245 248 252 257 261 262 263 262 262 266 273 281 288 294 298 301 304 307 309 311 312 314 315 315 315 316 318 319 321 324 325 326 326 326
248 243 242 242 243 245 246 244 241 241 240 242 248 254 256 258 260 261 263 269 276 282 288 293 297 300 303 306 308 310 311 312 313 314 315 316 318 320 323 325 327 328 328 328
248 246 244 243 245 244 245 242 238 237 238 241 246 250 253 256 259 262 266 272 278 283 287 292 296 299 302 305 307 309 310 311 312 313 315 317 319 322 324 327 329 329 329 329
254 250 246 243 242 243 243 240 238 238 238 241 246 249 252 255 259 264 270 275 279 283 287 291 294 298 301 304 306 308 309 310 312 313 315 318 321 323 326 328 330 330 330 330
265 261 255 249 246 244 243 242 241 241 242 244 247 250 253 257 262 268 272 275 279 283 286 290 294 297 300 303 305 306 308 309 311 313 315 319 322 325 328 330 331 331 329 329
271 269 264 259 255 251 249 247 246 247 248 249 250 252 256 261 265 268 272 275 279 283 286 290 294 297 299 302 304 305 307 309 311 314 317 320 323 326 329 331 331 329 326 325
270 269 268 266 264 261 259 257 255 254 254 254 255 255 258 261 264 267 269 272 276 281 285 289 293 296 299 302 304 305 307 309 312 315 317 321 324 327 330 331 330 327 323 321
267 266 267 267 266 265 264 263 261 260 259 258 257 257 259 260 262 265 269 272 276 280 285 289 292 296 299 302 303 305 307 309 312 315 318 322 325 328 330 330 328 324 320 318
Height
5646 5647 5647 5648 5648 5649 5649 5649 5649 5647 5643 5639 5634 5628 5621 5612 5603 5593 5582 5571 5560 5550 5543 5539 5539 5541 5544 5548 5553 5558 5564 5570 5579 5589 5600 5611 5621 5629 5637 5642 5647 5650 5652 5653
5642 5643 5643 5644 5645 5645 5646 5645 5644 5642 5639 5635 5629 5623 5616 5607 5598 5588 5578 5567 5557 5548 5541 5537 5535 5536 5539 5542 5546 5552 5557 5565 5575 5586 5597 5607 5616 5624 5631 5636 5639 5642 5644 5644
5639 5639 5640 5642 5642 5642 5643 5642 5641 5639 5636 5631 5627 5620 5613 5604 5595 5586 5577 5568 5559 5551 5545 5540 5537 5537 5538 5541 5545 5551 5558 5566 5576 5586 5596 5605 5613 5620 5625 5629 5632 5635 5635 5636
5635 5637 5638 5640 5639 5640 5640 5640 5638 5635 5632 5628 5623 5617 5610 5602 5594 5586 5579 5571 5564 5557 5551 5547 5544 5543 5544 5546 5550 5555 5561 5570 5579 5588 5596 5603 5610 5615 5619 5623 5626 5627 5628 5627
5632 5633 5635 5636 5637 5637 5638 5637 5636 5633 5630 5626 5621 5615 5609 5602 5595 5588 5582 5575 5569 5564 5559 5556 5553 5552 5552 5553 5557 5562 5568 5575 5582 5589 5596 5602 5606 5611 5615 5618 5619 5619 5619 5618
5629 5630 5632 5635 5635 5635 5636 5635 5633 5631 5628 5624 5619 5615 5610 5603 5597 5591 5585 5580 5575 5571 5567 5564 5562 5561 5561 5563 5566 5570 5575 5580 5586 5591 5596 5600 5603 5607 5609 5611 5612 5612 5611 5609
5626 5627 5629 5631 5632 5633 5634 5634 5630 5628 5625 5622 5618 5614 5609 5604 5599 5593 5588 5584 5580 5577 5574 5572 5570 5570 5570 5571 5573 5577 5580 5584 5588 5591 5595 5598 5600 5603 5604 5605 5605 5604 5602 5600
5623 5625 5629 5628 5628 5629 5630 5628 5626 5625 5622 5620 5616 5613 5609 5605 5600 5596 5592 5588 5584 5582 5579 5578 5577 5576 5576 5577 5579 5581 5584 5586 5589 5592 5594 5596 5598 5599 5600 5599 5598 5596 5594 5590
5621 5623 5624 5624 5624 5625 5624 5624 5623 5622 5620 5617 5615 5611 5608 5605 5601 5598 5594 5591 5588 5586 5584 5583 5582 5581 5582 5583 5584 5585 5587 5588 5590 5591 5593 5594 5595 5595 5594 5592 5590 5587 5584 5580
5616 5618 5619 5620 5620 5621 5620 5620 5619 5618 5617 5615 5613 5610 5607 5604 5601 5599 5596 5594 5591 5590 5588 5587 5586 5586 5586 5586 5587 5587 5588 5589 5590 5591 5591 5591 5590 5589 5587 5585 5582 5578 5574 5570
5611 5612 5614 5615 5616 5616 5616 5616 5615 5615 5613 5612 5610 5608 5606 5603 5601 5599 5597 5595 5594 5592 5591 5590 5590 5589 5589 5589 5589 5589 5589 5589 5589 5589 5588 5586 5585 5582 5579 5577 5573 5570 5566 5561
5606 5607 5609 5610 5611 5611 5611 5611 5611 5610 5610 5609 5608 5606 5604 5602 5600 5598 5597 5595 5594 5593 5592 5592 5591 5590 5590 5589 5589 5588 5588 5587 5586 5584 5582 5580 5578 5575 5572 5569 5566 5562 5557 5552
5600 5601 5603 5605 5605 5606 5606 5606 5606 5606 5606 5605 5604 5604 5602 5601 5599 5597 5596 5595 5594 5593 5592 5591 5591 5590 5589 5588 5587 5586 5585 5583 5581 5579 5577 5574 5572 5569 5566 5562 5558 5553 5548 5541
5594 5595 5597 5598 5599 5600 5600 5601 5601 5601 5601 5601 5601 5600 5599 5598 5597 5595 5594 5593 5593 5592 5591 5590 5590 5589 5587 5586 5584 5583 5581 5579 5577 5574 5572 5569 5566 5562 5559 5554 5549 5543 5537 5530
5587 5589 5590 5591 5593 5594 5595 5595 5596 5596 5596 5596 5596 5596 5596 5595 5594 5593 5592 5591 5591 5590 5589 5588 5587 5586 5585 5583 5581 5579 5577 5575 5572 5569 5566 5563 5559 5555 5551 5546 5540 5534 5526 5517
5581 5582 5583 5585 5586 5588 5589 5589 5590 5591 5591 5592 5592 5592 5591 5591 5590 5589 5589 5588 5588 5587 5587 5586 5584 5583 5581 5579 5577 5575 5572 5569 5567 5563 5560 5556 5552 5547 5543 5537 5531 5524 5515 5505
5574 5575 5577 5579 5580 5581 5582 5583 5584 5585 5586 5586 5587 5587 5587 5586 5586 5586 5585 5585 5584 5584 5583 5582 5581 5579 5577 5575 5572 5570 5567 5564 5561 5557 5553 5549 5545 5540 5535 5528 5521 5513 5504 5493
5568 5569 5571 5572 5573 5575 5576 5577 5578 5579 5580 5581 5582 5582 5582 5582 5582 5582 5581 5581 5581 5580 5579 5578 5576 5574 5572 5570 5567 5565 5562 5558 5555 5551 5547 5543 5538 5533 5527 5520 5512 5503 5492 5481
5562 5563 5565 5566 5567 5569 5570 5571 5572 5573 5575 5576 5576 5577 5577 5577 5577 5577 5577 5577 5576 5576 5575 5573 5571 5569 5567 5564 5562 5559 5556 5552 5548 5544 5540 5536 5531 5525 5518 5511 5502 5493 5482 5471
5557 5558 5559 5560 5562 5563 5564 5565 5566 5567 5569 5570 5571 5571 5572 5572 5572 5572 5572 5572 5571 5571 5570 5568 5566 5564 5562 5559 5556 5553 5550 5546 5542 5538 5533 5528 5523 5517 5510 5502 5493 5483 5472 5461
5552 5553 5554 5555 5556 5557 5558 5559 5560 5561 5563 5564 5565 5566 5566 5567 5567 5567 5567 5567 5566 5565 5564 5562 5560 5558 5556 5553 5550 5547 5543 5540 5536 5531 5526 5521 5515 5509 5501 5493 5484 5473 5462 5451
5548 5548 5549 5550 5551 5552 5552 5553 5554 5556 5557 5558 5559 5560 5561 5561 5561 5562 5562 5561 5561 5559 5558 5556 5555 5552 5550 5547 5544 5541 5537 5533 5529 5524 5519 5514 5508 5501 5493 5484 5474 5464 5453 5443
5543 5544 5544 5545 5546 5546 5547 5548 5549 5550 5551 5552 5554 5554 5555 5556 5556 5556 5556 5555 5554 5553 5552 5550 5548 5546 5544 5541 5537 5534 5530 5526 5522 5517 5512 5506 5500 5492 5484 5475 5465 5455 5445 5437
5539 5539 5540 5540 5541 5542 5542 5543 5544 5545 5546 5547 5548 5549 5549 5550 5550 5550 5549 5549 5548 5547 5545 5544 5542 5540 5537 5534 5531 5527 5523 5519 5514 5510 5504 5498 5492 5484 5475 5466 5457 5447 5440 5433
5534 5535 5535 5535 5536 5536 5537 5538 5539 5540 5540 5541 5542 5543 5543 5543 5543 5543 5543 5542 5541 5540 5539 5537 5535 5533 5530 5527 5523 5520 5516 5511 5507 5502 5497 5490 5483 5476 5467 5458 5449 5441 5434 5429
5528 5528 5529 5529 5530 5530 5531 5531 5532 5533 5534 5534 5535 5536 5536 5536 5536 5536 5535 5535 5534 5533 5532 5530 5528 5526 5523 5520 5516 5512 5508 5504 5500 5494 5489 5482 5475 5467 5459 5450 5442 5435 5429 5424
5519 5520 5521 5521 5522 5523 5523 5524 5525 5525 5526 5527 5527 5528 5528 5528 5528 5528 5528 5527 5526 5525 5524 5522 5520 5518 5515 5512 5509 5505 5501 5497 5492 5487 5481 5474 5467 5459 5451 5443 5436 5429 5424 5420